Location: Gorrie
(43.8742°N, 81.1087°W)
Time: 03:50:13
(UTC+00:00)

Cosmos 1726 Rocket - Visible Passes

Search period start: 08 March 2026 00:00
Search period end: 18 March 2026 00:00
Orbit: 555 x 660 km, 82.5° (Epoch: 7 March)

Date Brightness Start Highest point End Pass type
(mag) Time Alt. Az. Time Alt. Az. Time Alt. Az.
8 Mar 7.2 10:48:38 10° ESE 10:50:44 13° E 10:52:52 10° NE visible
9 Mar 6.6 00:07:34 10° NW 00:11:03 22° W 00:14:28 10° SW visible
9 Mar 6.6 11:00:53 10° SE 11:04:18 22° E 11:07:47 10° NE visible
10 Mar 7.2 00:22:29 10° NW 00:24:37 13° W 00:26:43 10° WSW visible
10 Mar 5.6 11:13:52 10° SSE 11:17:56 35° E 11:22:07 10° NNE visible
13 Mar 6.8 10:19:14 10° SE 10:22:08 17° E 10:25:05 10° NE visible
14 Mar 6.1 10:31:55 10° SE 10:35:44 27° E 10:39:38 10° NNE visible
15 Mar 5.0 10:45:05 10° SSE 10:49:24 45° E 10:53:50 10° NNE visible
16 Mar 3.9 10:58:36 10° S 11:03:09 76° E 11:07:48 10° NNE visible
17 Mar 6.9 09:37:51 10° ESE 09:39:58 13° E 09:42:05 10° NE visible
